Location: *
(58.7167°N, 26.1833°E)
Time: 15:03:10
(UTC+00:00)

Cosmos 1975 - Pass Details

Date: 25 August 2019
Orbit: 543 x 561 km, 82.5° (Epoch: 23 October)

Event Time Altitude Azimuth Distance (km) Brightness Sun altitude
Exits shadow 19:02:28 15° 130° (SE) 1,540 4.4 -10.3°
Maximum altitude 19:04:42 23° 87° (E) 1,197 4.1 -10.5°
Drops below altitude 10° 19:07:53 10° 35° (NE) 1,828 5.6 -10.8°
Sets 19:10:22 0° 21° (NNE) 2,725 6.7 -11.1°
